TimeEDT,TemperatureF,Dew PointF,Humidity,Sea Level PressureIn,VisibilityMPH,Wind Direction,Wind SpeedMPH,Gust SpeedMPH,PrecipitationIn,Events,Conditions,WindDirDegrees,DateUTC
12:15 AM,39.2,30.2,70,30.24,10.0,Calm,Calm,-,N/A,,Clear,0,2013-03-30 04:15:00
12:35 AM,37.4,32.0,81,30.24,10.0,Calm,Calm,-,N/A,,Clear,0,2013-03-30 04:35:00
12:55 AM,37.4,30.2,75,30.23,10.0,Calm,Calm,-,N/A,,Clear,0,2013-03-30 04:55:00
1:15 AM,35.6,30.2,81,30.23,10.0,Calm,Calm,-,N/A,,Clear,0,2013-03-30 05:15:00
1:35 AM,35.6,30.2,81,30.24,10.0,Calm,Calm,-,N/A,,Clear,0,2013-03-30 05:35:00
1:55 AM,35.6,30.2,81,30.24,10.0,Calm,Calm,-,N/A,,Scattered Clouds,0,2013-03-30 05:55:00
2:15 AM,35.6,30.2,81,30.24,10.0,Calm,Calm,-,N/A,,Mostly Cloudy,0,2013-03-30 06:15:00
2:35 AM,35.6,32.0,87,30.24,10.0,Calm,Calm,-,N/A,,Overcast,0,2013-03-30 06:35:00
2:55 AM,35.6,32.0,87,30.24,10.0,Calm,Calm,-,N/A,,Overcast,0,2013-03-30 06:55:00
3:15 AM,35.6,32.0,87,30.24,10.0,Calm,Calm,-,N/A,,Overcast,0,2013-03-30 07:15:00
3:35 AM,35.6,32.0,87,30.24,10.0,Calm,Calm,-,N/A,,Overcast,0,2013-03-30 07:35:00
3:55 AM,37.4,32.0,81,30.24,10.0,Calm,Calm,-,N/A,,Overcast,0,2013-03-30 07:55:00
4:15 AM,37.4,32.0,81,30.23,10.0,Calm,Calm,-,N/A,,Overcast,0,2013-03-30 08:15:00
4:35 AM,35.6,32.0,87,30.23,10.0,Calm,Calm,-,N/A,,Overcast,0,2013-03-30 08:35:00
4:55 AM,35.6,32.0,87,30.23,10.0,Calm,Calm,-,N/A,,Mostly Cloudy,0,2013-03-30 08:55:00
5:15 AM,35.6,32.0,87,30.23,10.0,Calm,Calm,-,N/A,,Mostly Cloudy,0,2013-03-30 09:15:00
5:35 AM,35.6,32.0,87,30.23,10.0,Calm,Calm,-,N/A,,Overcast,0,2013-03-30 09:35:00
5:55 AM,35.6,32.0,87,30.23,10.0,Calm,Calm,-,N/A,,Mostly Cloudy,0,2013-03-30 09:55:00
6:15 AM,35.6,32.0,87,30.23,10.0,Calm,Calm,-,N/A,,Mostly Cloudy,0,2013-03-30 10:15:00
6:35 AM,35.6,32.0,87,30.24,10.0,Calm,Calm,-,N/A,,Mostly Cloudy,0,2013-03-30 10:35:00
6:55 AM,35.6,32.0,87,30.24,10.0,Calm,Calm,-,N/A,,Mostly Cloudy,0,2013-03-30 10:55:00
7:15 AM,35.6,32.0,87,30.24,10.0,Calm,Calm,-,N/A,,Mostly Cloudy,0,2013-03-30 11:15:00
7:35 AM,33.8,32.0,93,30.25,10.0,Calm,Calm,-,N/A,,Mostly Cloudy,0,2013-03-30 11:35:00
7:55 AM,35.6,32.0,87,30.26,10.0,Calm,Calm,-,N/A,,Overcast,0,2013-03-30 11:55:00
8:15 AM,35.6,32.0,87,30.27,10.0,Calm,Calm,-,N/A,,Mostly Cloudy,0,2013-03-30 12:15:00
8:35 AM,37.4,32.0,81,30.27,10.0,Calm,Calm,-,N/A,,Mostly Cloudy,0,2013-03-30 12:35:00
8:55 AM,39.2,32.0,75,30.27,10.0,Calm,Calm,-,N/A,,Mostly Cloudy,0,2013-03-30 12:55:00
9:15 AM,41.0,33.8,76,30.27,10.0,Calm,Calm,-,N/A,,Mostly Cloudy,0,2013-03-30 13:15:00
9:35 AM,44.6,32.0,61,30.27,10.0,Calm,Calm,-,N/A,,Scattered Clouds,0,2013-03-30 13:35:00
9:55 AM,46.4,32.0,57,30.27,10.0,Calm,Calm,-,N/A,,Clear,0,2013-03-30 13:55:00
10:15 AM,51.8,32.0,47,30.25,10.0,Calm,Calm,-,N/A,,Clear,0,2013-03-30 14:15:00
10:35 AM,53.6,24.8,33,30.25,10.0,East,3.5,-,N/A,,Clear,90,2013-03-30 14:35:00
10:55 AM,55.4,26.6,33,30.23,10.0,NE,4.6,-,N/A,,Clear,50,2013-03-30 14:55:00
11:15 AM,55.4,26.6,33,30.23,10.0,North,3.5,-,N/A,,Clear,360,2013-03-30 15:15:00
11:35 AM,55.4,26.6,33,30.23,10.0,Calm,Calm,-,N/A,,Clear,0,2013-03-30 15:35:00
11:55 AM,59.0,28.4,31,30.22,10.0,WSW,5.8,-,N/A,,Clear,240,2013-03-30 15:55:00
12:15 PM,59.0,28.4,31,30.23,10.0,WSW,5.8,-,N/A,,Clear,240,2013-03-30 16:15:00
12:35 PM,59.0,28.4,31,30.22,10.0,South,4.6,-,N/A,,Clear,170,2013-03-30 16:35:00
12:55 PM,59.0,28.4,31,30.19,10.0,Calm,Calm,-,N/A,,Clear,0,2013-03-30 16:55:00
1:15 PM,60.8,28.4,29,30.19,10.0,SW,4.6,-,N/A,,Clear,230,2013-03-30 17:15:00
1:35 PM,60.8,28.4,29,30.18,10.0,WSW,3.5,-,N/A,,Clear,240,2013-03-30 17:35:00
1:55 PM,62.6,28.4,27,30.17,10.0,WSW,6.9,-,N/A,,Clear,240,2013-03-30 17:55:00
2:15 PM,62.6,26.6,26,30.16,10.0,Calm,Calm,-,N/A,,Clear,0,2013-03-30 18:15:00
2:35 PM,62.6,28.4,27,30.15,10.0,SSW,4.6,-,N/A,,Clear,210,2013-03-30 18:35:00
2:55 PM,62.6,26.6,26,30.14,10.0,South,3.5,-,N/A,,Clear,190,2013-03-30 18:55:00
3:15 PM,62.6,28.4,27,30.13,10.0,West,3.5,-,N/A,,Clear,280,2013-03-30 19:15:00
3:35 PM,62.6,26.6,26,30.12,10.0,Calm,Calm,-,N/A,,Clear,0,2013-03-30 19:35:00
3:55 PM,62.6,28.4,27,30.11,10.0,WSW,8.1,-,N/A,,Clear,240,2013-03-30 19:55:00
4:15 PM,62.6,28.4,27,30.10,10.0,SW,6.9,-,N/A,,Clear,230,2013-03-30 20:15:00
4:35 PM,62.6,28.4,27,30.09,10.0,SW,4.6,-,N/A,,Clear,220,2013-03-30 20:35:00
4:55 PM,62.6,30.2,30,30.09,10.0,WNW,3.5,-,N/A,,Clear,300,2013-03-30 20:55:00
5:15 PM,62.6,28.4,27,30.09,10.0,SSW,5.8,-,N/A,,Clear,200,2013-03-30 21:15:00
5:35 PM,60.8,28.4,29,30.07,10.0,WSW,3.5,-,N/A,,Clear,240,2013-03-30 21:35:00
5:55 PM,60.8,28.4,29,30.07,10.0,Calm,Calm,-,N/A,,Clear,0,2013-03-30 21:55:00
6:15 PM,60.8,28.4,29,30.07,10.0,West,3.5,-,N/A,,Clear,270,2013-03-30 22:15:00
6:35 PM,60.8,28.4,29,30.07,10.0,Calm,Calm,-,N/A,,Clear,0,2013-03-30 22:35:00
6:55 PM,60.8,26.6,27,30.07,10.0,Calm,Calm,-,N/A,,Clear,0,2013-03-30 22:55:00
7:15 PM,59.0,28.4,31,30.07,10.0,Calm,Calm,-,N/A,,Clear,0,2013-03-30 23:15:00
7:35 PM,57.2,30.2,36,30.06,10.0,Calm,Calm,-,N/A,,Clear,0,2013-03-30 23:35:00
7:55 PM,53.6,30.2,41,30.05,10.0,Calm,Calm,-,N/A,,Clear,0,2013-03-30 23:55:00
8:15 PM,51.8,30.2,44,30.04,10.0,Calm,Calm,-,N/A,,Clear,0,2013-03-31 00:15:00
8:35 PM,50.0,30.2,47,30.04,10.0,Calm,Calm,-,N/A,,Clear,0,2013-03-31 00:35:00
8:55 PM,50.0,30.2,47,30.04,10.0,Calm,Calm,-,N/A,,Clear,0,2013-03-31 00:55:00
9:15 PM,48.2,30.2,50,30.04,10.0,Calm,Calm,-,N/A,,Clear,0,2013-03-31 01:15:00
9:35 PM,46.4,32.0,57,30.04,10.0,Calm,Calm,-,N/A,,Clear,0,2013-03-31 01:35:00
9:55 PM,46.4,32.0,57,30.03,10.0,East,3.5,-,N/A,,Clear,80,2013-03-31 01:55:00
10:15 PM,44.6,32.0,61,30.02,10.0,Calm,Calm,-,N/A,,Clear,0,2013-03-31 02:15:00
10:35 PM,44.6,32.0,61,30.01,10.0,Calm,Calm,-,N/A,,Clear,0,2013-03-31 02:35:00
10:55 PM,44.6,33.8,66,30.01,10.0,Calm,Calm,-,N/A,,Clear,0,2013-03-31 02:55:00
11:15 PM,44.6,32.0,61,30.00,10.0,Calm,Calm,-,N/A,,Clear,0,2013-03-31 03:15:00
11:35 PM,44.6,32.0,61,30.00,10.0,Calm,Calm,-,N/A,,Clear,0,2013-03-31 03:35:00
11:55 PM,44.6,32.0,61,29.99,10.0,Calm,Calm,-,N/A,,Clear,0,2013-03-31 03:55:00